Rensselaer, IN

12:17 PM CDT on August 19, 2017 (GMT -0500)
Jasper County

Weather History for KRZL - November, 2013

Change the Weather History Date:

Sunday, November 17, 2013

  Actual Average (KIKK) Record (KIKK)
Temperature  
Mean Temperature 55 °F -  
Max Temperature 68 °F 48 °F 71 °F (2016)
Min Temperature 42 °F 30 °F 11 °F (1989)
Degree Days  
Heating Degree Days 10    
Growing Degree Days 5 (Base 50)    
Moisture  
Dew Point 53 °F    
Average Humidity 87    
Maximum Humidity 94    
Minimum Humidity 71    
Precipitation  
Precipitation 0.37 in - - ()
Sea Level Pressure  
Sea Level Pressure 29.57 in    
Wind  
Wind Speed 19 mph (SSW)    
Max Wind Speed 36 mph    
Max Gust Speed 48 mph    
Visibility 10 miles    
Events Rain , Thunderstorm    
Averages and records for this station are not official NWS values.
T = Trace of Precipitation, MM = Missing Value Source: NWS Daily Summary

Daily Weather History Graph

Daily Weather History Graph

Search for Another Location

Airport or City:

Trip Planner

Search our weather history database for the weather conditions in past years. The results will help you decide how hot, cold, wet, or windy it might be!

Date:

Astronomy

Nov. 17, 2013 Rise Set
Actual Time 6:38 AM CST 4:28 PM CST
Civil Twilight 6:09 AM CST 4:57 PM CST
Nautical Twilight 5:35 AM CST 5:31 PM CST
Astronomical Twilight 5:03 AM CST 6:03 PM CST
Moon 4:45 PM CST (11/17) 6:32 AM CST (11/17)
Length of Visible Light 10h 48m
Length of Day
9h 49m
Full, 100% of the Moon is Illuminated
Nov 17
Full
Nov 25
Last Quarter
Dec 2
New
Dec 9
First Quarter
Dec 17
Full

Hourly Weather History & Observations

Time (CST) Temp. Windchill Dew Point Humidity Pressure Visibility Wind Dir Wind Speed Gust Speed Precip Events Conditions
12:15 AM 60.8 °F - 59.0 °F 94% 29.66 in 10.0 mi South 19.6 mph 25.3 mph N/A   Overcast
12:35 AM 60.8 °F - 59.0 °F 94% 29.65 in 10.0 mi South 17.3 mph 23.0 mph N/A   Mostly Cloudy
12:55 AM 60.8 °F - 59.0 °F 94% 29.65 in 10.0 mi South 15.0 mph 19.6 mph N/A   Overcast
1:15 AM 60.8 °F - 59.0 °F 94% 29.64 in 10.0 mi South 13.8 mph 23.0 mph N/A   Mostly Cloudy
1:35 AM 60.8 °F - 59.0 °F 94% 29.64 in 10.0 mi South 15.0 mph - N/A   Overcast
1:55 AM 60.8 °F - 59.0 °F 94% 29.63 in 10.0 mi SSE 16.1 mph 23.0 mph N/A   Overcast
2:15 AM 60.8 °F - 59.0 °F 94% 29.62 in 10.0 mi SSE 13.8 mph 20.7 mph N/A   Overcast
2:35 AM 60.8 °F - 59.0 °F 94% 29.63 in 10.0 mi SSE 11.5 mph - N/A   Overcast
2:55 AM 60.8 °F - 59.0 °F 94% 29.62 in 10.0 mi South 11.5 mph - N/A   Overcast
3:15 AM 60.8 °F - 59.0 °F 94% 29.63 in 10.0 mi South 12.7 mph - N/A   Overcast
3:35 AM 60.8 °F - 59.0 °F 94% 29.63 in 10.0 mi South 10.4 mph - N/A   Overcast
3:55 AM 60.8 °F - 59.0 °F 94% 29.63 in 10.0 mi South 12.7 mph 18.4 mph N/A   Overcast
4:15 AM 60.8 °F - 59.0 °F 94% 29.63 in 10.0 mi South 12.7 mph - N/A   Overcast
4:35 AM 60.8 °F - 59.0 °F 94% 29.61 in 10.0 mi South 15.0 mph 20.7 mph N/A   Overcast
4:55 AM 60.8 °F - 59.0 °F 94% 29.61 in 10.0 mi South 13.8 mph - N/A   Overcast
5:15 AM 60.8 °F - 59.0 °F 94% 29.60 in 10.0 mi SSE 16.1 mph 20.7 mph N/A   Overcast
5:35 AM 60.8 °F - 59.0 °F 94% 29.58 in 10.0 mi SSE 15.0 mph 20.7 mph N/A   Overcast
5:55 AM 60.8 °F - 59.0 °F 94% 29.56 in 10.0 mi SSE 18.4 mph 25.3 mph N/A   Overcast
6:15 AM 60.8 °F - 59.0 °F 94% 29.56 in 10.0 mi South 19.6 mph 27.6 mph N/A   Overcast
6:35 AM 60.8 °F - 59.0 °F 94% 29.56 in 10.0 mi SSE 17.3 mph 25.3 mph N/A   Overcast
6:55 AM 60.8 °F - 59.0 °F 94% 29.56 in 10.0 mi South 17.3 mph 23.0 mph N/A   Overcast
7:15 AM 60.8 °F - 59.0 °F 94% 29.56 in 10.0 mi SSE 16.1 mph 23.0 mph N/A   Overcast
7:35 AM 62.6 °F - 59.0 °F 88% 29.55 in 10.0 mi South 17.3 mph 23.0 mph N/A   Overcast
7:55 AM 62.6 °F - 60.8 °F 94% 29.54 in 10.0 mi South 19.6 mph 24.2 mph N/A   Overcast
8:15 AM 62.6 °F - 60.8 °F 94% 29.54 in 10.0 mi South 19.6 mph 26.5 mph N/A   Overcast
8:35 AM 62.6 °F - 60.8 °F 94% 29.53 in 10.0 mi South 21.9 mph 31.1 mph N/A   Overcast
8:55 AM 64.4 °F - 60.8 °F 88% 29.53 in 10.0 mi South 26.5 mph 31.1 mph N/A   Overcast
9:15 AM 64.4 °F - 60.8 °F 88% 29.51 in 10.0 mi South 27.6 mph 33.4 mph N/A   Overcast
9:35 AM 64.4 °F - 60.8 °F 88% 29.51 in 10.0 mi South 26.5 mph 35.7 mph N/A   Overcast
9:55 AM 64.4 °F - 60.8 °F 88% 29.50 in 10.0 mi South 25.3 mph 34.5 mph N/A   Overcast
10:15 AM 64.4 °F - 60.8 °F 88% 29.49 in 10.0 mi South 27.6 mph 40.3 mph N/A   Overcast
10:35 AM 64.4 °F - 60.8 °F 88% 29.46 in 10.0 mi South 26.5 mph 34.5 mph N/A   Overcast
10:55 AM 64.4 °F - 60.8 °F 88% 29.44 in 10.0 mi South 19.6 mph 31.1 mph N/A   Overcast
11:15 AM 64.4 °F - 60.8 °F 88% 29.42 in 10.0 mi South 25.3 mph 34.5 mph N/A   Overcast
11:35 AM 64.4 °F - 60.8 °F 88% 29.40 in 10.0 mi South 23.0 mph 33.4 mph N/A   Overcast
11:55 AM 64.4 °F - 60.8 °F 88% 29.37 in 10.0 mi South 20.7 mph 33.4 mph N/A   Overcast
12:15 PM 66.2 °F - 62.6 °F 88% 29.35 in 10.0 mi South 23.0 mph 36.8 mph N/A   Overcast
12:35 PM 68.0 °F - 62.6 °F 83% 29.33 in 10.0 mi South 21.9 mph 34.5 mph N/A   Overcast
12:55 PM 68.0 °F - 62.6 °F 83% 29.31 in 10.0 mi South 25.3 mph 33.4 mph N/A Rain , Thunderstorm Light Thunderstorms and Rain
1:15 PM 64.4 °F - 62.6 °F 94% 29.28 in 7.0 mi South 19.6 mph 33.4 mph 0.01 in Rain , Thunderstorm Rain
1:35 PM 64.4 °F - 62.6 °F 94% 29.31 in 3.0 mi SSW 21.9 mph 31.1 mph 0.09 in Rain , Thunderstorm Thunderstorms and Rain
1:55 PM 64.4 °F - 60.8 °F 88% 29.27 in 2.0 mi SSW 28.8 mph 39.1 mph 0.37 in Rain , Thunderstorm Light Thunderstorms and Rain
4:15 PM 53.6 °F - 46.4 °F 77% 29.44 in 10.0 mi WSW 31.1 mph 40.3 mph N/A   Unknown
4:35 PM 51.8 °F - 44.6 °F 76% 29.46 in 10.0 mi WSW 32.2 mph 48.3 mph N/A   Clear
4:55 PM 51.8 °F - 44.6 °F 76% 29.49 in 10.0 mi WSW 25.3 mph 36.8 mph N/A   Scattered Clouds
5:15 PM 50.0 °F - 44.6 °F 82% 29.52 in 10.0 mi WSW 24.2 mph 40.3 mph N/A   Overcast
5:35 PM 50.0 °F - 44.6 °F 82% 29.54 in 10.0 mi West 27.6 mph 35.7 mph N/A   Overcast
5:55 PM 50.0 °F - 42.8 °F 76% 29.57 in 10.0 mi West 26.5 mph 32.2 mph N/A   Overcast
6:15 PM 50.0 °F - 42.8 °F 76% 29.59 in 10.0 mi West 35.7 mph 44.9 mph N/A   Overcast
6:35 PM 48.2 °F - 41.0 °F 76% 29.60 in 10.0 mi West 29.9 mph 39.1 mph N/A   Overcast
6:55 PM 46.4 °F 38.1 °F 41.0 °F 81% 29.61 in 10.0 mi West 24.2 mph 38.0 mph N/A   Scattered Clouds
7:15 PM 46.4 °F 38.3 °F 41.0 °F 81% 29.62 in 10.0 mi WSW 23.0 mph 31.1 mph N/A   Clear
7:35 PM 46.4 °F 39.0 °F 42.8 °F 87% 29.64 in 10.0 mi WSW 19.6 mph 26.5 mph N/A   Scattered Clouds
7:55 PM 46.4 °F 38.7 °F 42.8 °F 87% 29.65 in 10.0 mi WSW 20.7 mph 28.8 mph N/A   Overcast
8:15 PM 48.2 °F - 42.8 °F 82% 29.66 in 10.0 mi West 24.2 mph 33.4 mph N/A   Mostly Cloudy
8:35 PM 48.2 °F - 41.0 °F 76% 29.67 in 10.0 mi West 25.3 mph 34.5 mph N/A   Mostly Cloudy
8:55 PM 46.4 °F 37.2 °F 39.2 °F 76% 29.69 in 10.0 mi West 29.9 mph 41.4 mph N/A   Mostly Cloudy
9:15 PM 46.4 °F 37.5 °F 37.4 °F 71% 29.69 in 10.0 mi West 27.6 mph 39.1 mph N/A   Mostly Cloudy
9:35 PM 46.4 °F 39.0 °F 37.4 °F 71% 29.71 in 10.0 mi West 19.6 mph 31.1 mph N/A   Scattered Clouds
9:55 PM 44.6 °F 36.4 °F 37.4 °F 76% 29.73 in 10.0 mi West 20.7 mph 33.4 mph N/A   Clear
10:15 PM 44.6 °F 36.4 °F 37.4 °F 76% 29.74 in 10.0 mi West 20.7 mph 29.9 mph N/A   Clear
10:35 PM 44.6 °F 37.8 °F 37.4 °F 76% 29.74 in 10.0 mi West 15.0 mph 25.3 mph N/A   Clear
10:55 PM 44.6 °F 36.9 °F 37.4 °F 76% 29.76 in 10.0 mi West 18.4 mph 23.0 mph N/A   Clear
11:15 PM 42.8 °F 35.1 °F 37.4 °F 81% 29.76 in 10.0 mi West 16.1 mph - N/A   Clear
11:35 PM 42.8 °F 35.4 °F 37.4 °F 81% 29.78 in 10.0 mi WSW 15.0 mph - N/A   Clear
11:55 PM 42.8 °F 36.2 °F 37.4 °F 81% 29.79 in 10.0 mi WSW 12.7 mph - N/A   Clear